| time (UTC) | temp C | wind direction | speed KPH | gust KPH | rain 1hr cm | rain 24hr cm | rain mn cm | humidity % | barometer mb |
| 20260509064707 | 11 | 44 | 0.0 | 0.0 | 0.00 | 0.00 | 0.00 | 96 | 1006.3 |
| 20260509064205 | 11 | 51 | 0.0 | 0.0 | 0.00 | 0.00 | 0.00 | 96 | 1006.0 |
| 20260509063702 | 11 | 43 | 0.0 | 0.0 | 0.00 | 0.00 | 0.00 | 96 | 1006.1 |
| 20260509063158 | 11 | 61 | 0.0 | 0.0 | 0.00 | 0.00 | 0.00 | 96 | 1005.9 |
| 20260509062655 | 11 | 71 | 0.0 | 0.0 | 0.00 | 0.00 | 0.00 | 96 | 1006.2 |
| 20260509062152 | 11 | 71 | 0.0 | 0.0 | 0.00 | 0.00 | 0.00 | 95 | 1006.2 |
| 20260509061649 | 11 | 40 | 0.0 | 0.0 | 0.00 | 0.00 | 0.00 | 95 | 1006.3 |
| 20260509061147 | 11 | 70 | 0.0 | 0.0 | 0.00 | 0.00 | 0.00 | 95 | 1006.3 |
| 20260509060644 | 11 | 54 | 0.0 | 0.0 | 0.00 | 0.00 | 0.00 | 94 | 1006.2 |
| 20260509060140 | 11 | 0 | 0.0 | 0.0 | 0.00 | 0.00 | 0.00 | 94 | 1006.4 |
| 20260509055636 | 11 | 62 | 0.0 | 0.0 | 0.00 | 0.00 | 0.00 | 94 | 1006.4 |
| 20260509055132 | 11 | 52 | 0.0 | 0.0 | 0.00 | 0.00 | 0.00 | 94 | 1006.6 |
| 20260509054629 | 11 | 81 | 0.0 | 0.0 | 0.00 | 0.00 | 0.00 | 93 | 1006.7 |
| 20260509054126 | 11 | 22 | 0.0 | 0.0 | 0.00 | 0.00 | 0.00 | 93 | 1006.5 |
| 20260509053624 | 11 | 89 | 0.0 | 0.0 | 0.00 | 0.00 | 0.00 | 93 | 1006.6 |
| 20260509053121 | 11 | 85 | 0.0 | 0.0 | 0.00 | 0.00 | 0.00 | 93 | 1006.6 |
| 20260509052619 | 11 | 85 | 0.0 | 0.0 | 0.00 | 0.00 | 0.00 | 92 | 1006.5 |
| 20260509052116 | 11 | 93 | 0.0 | 0.0 | 0.00 | 0.00 | 0.00 | 92 | 1006.8 |
| 20260509051614 | 11 | 59 | 0.0 | 0.0 | 0.00 | 0.00 | 0.00 | 92 | 1006.8 |
| 20260509051111 | 11 | 53 | 0.0 | 0.0 | 0.00 | 0.00 | 0.00 | 91 | 1007.0 |
| 20260509050608 | 12 | 46 | 0.0 | 0.0 | 0.00 | 0.00 | 0.00 | 91 | 1006.9 |
| 20260509050104 | 12 | 63 | 0.0 | 1.6 | 0.00 | 0.00 | 0.00 | 90 | 1006.9 |
| 20260509045602 | 12 | 55 | 0.0 | 0.0 | 0.00 | 0.00 | 0.00 | 89 | 1006.9 |
| 20260509045058 | 12 | 51 | 0.0 | 0.0 | 0.00 | 0.00 | 0.00 | 89 | 1006.8 |
| 20260509044556 | 12 | 50 | 0.0 | 0.0 | 0.00 | 0.00 | 0.00 | 88 | 1006.8 |
| 20260509044053 | 12 | 37 | 0.0 | 0.0 | 0.00 | 0.00 | 0.00 | 87 | 1006.8 |
| 20260509043550 | 12 | 24 | 0.0 | 0.0 | 0.00 | 0.00 | 0.00 | 87 | 1006.8 |
| 20260509043045 | 12 | 43 | 0.0 | 0.0 | 0.00 | 0.00 | 0.00 | 87 | 1007.0 |
| 20260509042541 | 12 | 23 | 0.0 | 0.0 | 0.00 | 0.00 | 0.00 | 87 | 1007.2 |
| 20260509042038 | 12 | 46 | 0.0 | 0.0 | 0.00 | 0.00 | 0.00 | 86 | 1007.0 |
| 20260509041535 | 12 | 31 | 0.0 | 0.0 | 0.00 | 0.00 | 0.00 | 86 | 1007.3 |
| 20260509041033 | 12 | 28 | 0.0 | 0.0 | 0.00 | 0.00 | 0.00 | 86 | 1007.3 |
| 20260509040531 | 12 | 36 | 0.0 | 0.0 | 0.00 | 0.00 | 0.00 | 86 | 1006.9 |
| 20260509040027 | 12 | 44 | 0.0 | 0.0 | 0.00 | 0.00 | 0.00 | 86 | 1007.2 |
| 20260509035524 | 12 | 55 | 0.0 | 0.0 | 0.00 | 0.00 | 0.00 | 85 | 1007.3 |
| 20260509035021 | 13 | 23 | 0.0 | 0.0 | 0.00 | 0.00 | 0.00 | 85 | 1007.2 |
| 20260509034519 | 13 | 64 | 0.0 | 0.0 | 0.00 | 0.00 | 0.00 | 84 | 1007.4 |
| 20260509034016 | 13 | 66 | 0.0 | 0.0 | 0.00 | 0.00 | 0.00 | 84 | 1007.3 |
| 20260509033512 | 13 | 45 | 0.0 | 0.0 | 0.00 | 0.00 | 0.00 | 84 | 1007.4 |
| 20260509033010 | 13 | 36 | 0.0 | 0.0 | 0.00 | 0.00 | 0.00 | 83 | 1007.6 |
| 20260509032507 | 13 | 15 | 0.0 | 0.0 | 0.00 | 0.00 | 0.00 | 83 | 1007.6 |
| 20260509032004 | 13 | 35 | 0.0 | 0.0 | 0.00 | 0.00 | 0.00 | 82 | 1007.6 |
| 20260509031501 | 13 | 15 | 0.0 | 0.0 | 0.00 | 0.00 | 0.00 | 82 | 1007.3 |
| 20260509030958 | 13 | 85 | 1.6 | 1.6 | 0.00 | 0.00 | 0.00 | 82 | 1007.6 |
| 20260509030456 | 13 | 26 | 1.6 | 1.6 | 0.00 | 0.00 | 0.00 | 82 | 1007.6 |
| 20260509025953 | 13 | 59 | 0.0 | 0.0 | 0.00 | 0.00 | 0.00 | 82 | 1007.6 |
| 20260509025449 | 13 | 45 | 0.0 | 1.6 | 0.00 | 0.00 | 0.00 | 81 | 1007.7 |
| 20260509024944 | 13 | 36 | 0.0 | 0.0 | 0.00 | 0.00 | 0.00 | 81 | 1007.8 |
| 20260509024441 | 13 | 43 | 0.0 | 0.0 | 0.00 | 0.00 | 0.00 | 82 | 1007.7 |
| 20260509023937 | 14 | 47 | 0.0 | 0.0 | 0.00 | 0.00 | 0.00 | 82 | 1007.8 |
| 20260509023435 | 14 | 64 | 0.0 | 1.6 | 0.00 | 0.00 | 0.00 | 82 | 1007.5 |
| 20260509022931 | 14 | 358 | 0.0 | 0.0 | 0.00 | 0.00 | 0.00 | 82 | 1007.8 |
| 20260509022428 | 14 | 7 | 0.0 | 0.0 | 0.00 | 0.00 | 0.00 | 83 | 1007.9 |
| 20260509021926 | 13 | 36 | 0.0 | 0.0 | 0.00 | 0.00 | 0.00 | 83 | 1007.7 |
| 20260509021423 | 13 | 0 | 0.0 | 0.0 | 0.00 | 0.00 | 0.00 | 84 | 1007.8 |
| 20260509020920 | 13 | 63 | 0.0 | 0.0 | 0.00 | 0.00 | 0.00 | 85 | 1007.7 |
| 20260509020418 | 13 | 46 | 0.0 | 0.0 | 0.00 | 0.00 | 0.00 | 87 | 1007.8 |
| 20260509015915 | 13 | 55 | 0.0 | 0.0 | 0.00 | 0.00 | 0.00 | 88 | 1007.5 |
| 20260509015414 | 13 | 55 | 0.0 | 0.0 | 0.00 | 0.00 | 0.00 | 88 | 1007.5 |
| 20260509014910 | 13 | 56 | 0.0 | 1.6 | 0.00 | 0.00 | 0.00 | 88 | 1007.8 |
| 20260509014407 | 13 | 50 | 0.0 | 0.0 | 0.00 | 0.00 | 0.00 | 86 | 1007.8 |
| 20260509013903 | 13 | 50 | 0.0 | 0.0 | 0.00 | 0.00 | 0.00 | 86 | 1007.6 |
| 20260509013400 | 13 | 50 | 0.0 | 0.0 | 0.00 | 0.00 | 0.00 | 85 | 1007.6 |
| 20260509012855 | 14 | 50 | 0.0 | 0.0 | 0.00 | 0.00 | 0.00 | 84 | 1007.6 |
| 20260509012352 | 14 | 50 | 0.0 | 0.0 | 0.00 | 0.00 | 0.00 | 83 | 1007.5 |
| 20260509011850 | 14 | 50 | 0.0 | 0.0 | 0.00 | 0.00 | 0.00 | 82 | 1007.4 |
| 20260509011347 | 15 | 50 | 0.0 | 0.0 | 0.00 | 0.00 | 0.00 | 80 | 1007.4 |
| 20260509010840 | 15 | 50 | 0.0 | 0.0 | 0.00 | 0.00 | 0.00 | 80 | 1007.4 |
| 20260509010337 | 15 | 50 | 0.0 | 0.0 | 0.00 | 0.00 | 0.00 | 80 | 1007.5 |
| 20260509005833 | 15 | 50 | 0.0 | 0.0 | 0.00 | 0.00 | 0.00 | 80 | 1007.2 |
| 20260509005331 | 15 | 50 | 0.0 | 0.0 | 0.00 | 0.00 | 0.00 | 79 | 1007.2 |
| 20260509004831 | 15 | 50 | 0.0 | 0.0 | 0.00 | 0.00 | 0.00 | 79 | 1007.3 |
| 20260509004328 | 15 | 41 | 0.0 | 0.0 | 0.00 | 0.00 | 0.00 | 79 | 1007.3 |
| 20260509003826 | 15 | 41 | 0.0 | 0.0 | 0.00 | 0.00 | 0.00 | 78 | 1007.3 |
| 20260509003323 | 15 | 41 | 0.0 | 0.0 | 0.00 | 0.00 | 0.00 | 78 | 1007.0 |
| 20260509002820 | 15 | 41 | 0.0 | 0.0 | 0.00 | 0.00 | 0.00 | 78 | 1007.0 |
| 20260509002318 | 15 | 43 | 0.0 | 0.0 | 0.00 | 0.00 | 0.00 | 79 | 1007.0 |
| 20260509001816 | 15 | 41 | 0.0 | 0.0 | 0.00 | 0.00 | 0.00 | 79 | 1006.9 |
| 20260509001311 | 15 | 39 | 0.0 | 0.0 | 0.00 | 0.00 | 0.00 | 79 | 1007.2 |
| 20260509000809 | 15 | 39 | 0.0 | 0.0 | 0.00 | 0.00 | 0.00 | 78 | 1006.7 |
| 20260509000307 | 15 | 39 | 0.0 | 0.0 | 0.00 | 0.00 | 0.00 | 77 | 1007.0 |
| 20260508235803 | 16 | 41 | 0.0 | 0.0 | 0.00 | 0.00 | 0.00 | 76 | 1007.0 |
| 20260508235300 | 16 | 43 | 0.0 | 0.0 | 0.00 | 0.00 | 0.00 | 76 | 1007.0 |
| 20260508234757 | 16 | 43 | 0.0 | 0.0 | 0.00 | 0.00 | 0.00 | 76 | 1007.3 |
| 20260508234253 | 16 | 40 | 0.0 | 0.0 | 0.00 | 0.00 | 0.00 | 75 | 1007.0 |
| 20260508233752 | 16 | 39 | 0.0 | 0.0 | 0.00 | 0.00 | 0.00 | 73 | 1007.4 |
| 20260508233251 | 16 | 138 | 0.0 | 1.6 | 0.00 | 0.00 | 0.00 | 72 | 1007.3 |
| 20260508232747 | 16 | 138 | 0.0 | 0.0 | 0.00 | 0.00 | 0.00 | 72 | 1007.3 |
| 20260508232244 | 16 | 135 | 0.0 | 0.0 | 0.00 | 0.00 | 0.00 | 73 | 1007.3 |
| 20260508231742 | 16 | 92 | 0.0 | 0.0 | 0.00 | 0.00 | 0.00 | 73 | 1007.2 |
| 20260508231238 | 16 | 350 | 0.0 | 0.0 | 0.00 | 0.00 | 0.00 | 73 | 1007.3 |
| 20260508230735 | 16 | 19 | 1.6 | 1.6 | 0.00 | 0.00 | 0.00 | 72 | 1007.4 |
| 20260508230231 | 16 | 89 | 0.0 | 1.6 | 0.00 | 0.00 | 0.00 | 72 | 1007.0 |
| 20260508225729 | 16 | 153 | 1.6 | 1.6 | 0.00 | 0.00 | 0.00 | 72 | 1007.6 |
| 20260508225226 | 16 | 148 | 0.0 | 0.0 | 0.00 | 0.00 | 0.00 | 72 | 1007.5 |
| 20260508224724 | 16 | 135 | 0.0 | 0.0 | 0.00 | 0.00 | 0.00 | 71 | 1007.3 |
| 20260508224221 | 17 | 155 | 1.6 | 1.6 | 0.00 | 0.00 | 0.00 | 70 | 1007.5 |
| 20260508223718 | 16 | 10 | 0.0 | 0.0 | 0.00 | 0.00 | 0.00 | 70 | 1007.4 |
| 20260508223215 | 16 | 65 | 0.0 | 0.0 | 0.00 | 0.00 | 0.00 | 71 | 1007.7 |
| 20260508222713 | 16 | 51 | 0.0 | 0.0 | 0.00 | 0.00 | 0.00 | 69 | 1007.6 |
| 20260508222210 | 16 | 17 | 0.0 | 0.0 | 0.00 | 0.00 | 0.00 | 70 | 1007.5 |
| 20260508221706 | 17 | 33 | 0.0 | 0.0 | 0.00 | 0.00 | 0.00 | 69 | 1007.5 |
| 20260508221202 | 16 | 359 | 0.0 | 0.0 | 0.00 | 0.00 | 0.00 | 70 | 1007.5 |
| 20260508220658 | 16 | 103 | 1.6 | 3.2 | 0.00 | 0.00 | 0.00 | 70 | 1007.2 |
| 20260508220155 | 17 | 357 | 0.0 | 1.6 | 0.00 | 0.00 | 0.00 | 69 | 1007.5 |
| 20260508215652 | 17 | 138 | 3.2 | 3.2 | 0.00 | 0.00 | 0.00 | 67 | 1007.2 |
| 20260508215148 | 17 | 356 | 1.6 | 1.6 | 0.00 | 0.00 | 0.00 | 67 | 1007.4 |
| 20260508214645 | 16 | 357 | 0.0 | 1.6 | 0.00 | 0.00 | 0.00 | 68 | 1007.3 |
| 20260508214143 | 16 | 356 | 0.0 | 0.0 | 0.00 | 0.00 | 0.00 | 69 | 1007.5 |
| 20260508213639 | 17 | 337 | 1.6 | 1.6 | 0.00 | 0.00 | 0.00 | 71 | 1007.6 |
| 20260508213135 | 17 | 170 | 1.6 | 1.6 | 0.00 | 0.00 | 0.00 | 68 | 1007.5 |
| 20260508212632 | 17 | 358 | 1.6 | 3.2 | 0.00 | 0.00 | 0.00 | 68 | 1007.5 |
| 20260508212129 | 16 | 11 | 0.0 | 1.6 | 0.00 | 0.00 | 0.00 | 69 | 1007.7 |
| 20260508211624 | 16 | 354 | 0.0 | 0.0 | 0.00 | 0.00 | 0.00 | 71 | 1007.8 |
| 20260508211120 | 16 | 104 | 0.0 | 0.0 | 0.00 | 0.00 | 0.00 | 71 | 1007.8 |
| 20260508210617 | 16 | 72 | 0.0 | 0.0 | 0.00 | 0.00 | 0.00 | 71 | 1007.9 |
| 20260508210115 | 16 | 350 | 4.8 | 4.8 | 0.00 | 0.00 | 0.00 | 69 | 1007.9 |
| 20260508205612 | 16 | 144 | 0.0 | 0.0 | 0.00 | 0.00 | 0.00 | 70 | 1007.9 |
| 20260508205108 | 16 | 331 | 1.6 | 1.6 | 0.00 | 0.00 | 0.00 | 69 | 1008.0 |
| 20260508204604 | 16 | 73 | 0.0 | 1.6 | 0.00 | 0.00 | 0.00 | 67 | 1008.1 |
| 20260508204101 | 16 | 40 | 0.0 | 0.0 | 0.00 | 0.00 | 0.00 | 67 | 1008.1 |
| 20260508203557 | 16 | 174 | 1.6 | 3.2 | 0.00 | 0.00 | 0.00 | 66 | 1008.2 |
| 20260508203053 | 16 | 127 | 3.2 | 3.2 | 0.00 | 0.00 | 0.00 | 66 | 1008.2 |
| 20260508202549 | 16 | 160 | 4.8 | 4.8 | 0.00 | 0.00 | 0.00 | 66 | 1008.3 |
| 20260508202047 | 16 | 91 | 1.6 | 1.6 | 0.00 | 0.00 | 0.00 | 68 | 1008.4 |
| 20260508201543 | 16 | 173 | 4.8 | 4.8 | 0.00 | 0.00 | 0.00 | 67 | 1008.1 |
| 20260508201040 | 16 | 40 | 0.0 | 0.0 | 0.00 | 0.00 | 0.00 | 65 | 1008.5 |
| 20260508200537 | 17 | 352 | 1.6 | 3.2 | 0.00 | 0.00 | 0.00 | 63 | 1008.3 |
| 20260508200033 | 17 | 159 | 3.2 | 3.2 | 0.00 | 0.00 | 0.00 | 65 | 1008.5 |
| 20260508195530 | 17 | 307 | 4.8 | 8.0 | 0.00 | 0.00 | 0.00 | 65 | 1008.4 |
| 20260508195026 | 17 | 149 | 8.0 | 11.3 | 0.00 | 0.00 | 0.00 | 61 | 1008.8 |
| 20260508194523 | 17 | 17 | 0.0 | 0.0 | 0.00 | 0.00 | 0.00 | 63 | 1008.7 |
| 20260508194020 | 16 | 322 | 3.2 | 3.2 | 0.00 | 0.00 | 0.00 | 65 | 1008.7 |
| 20260508193516 | 17 | 77 | 3.2 | 4.8 | 0.00 | 0.00 | 0.00 | 63 | 1008.6 |
| 20260508193013 | 16 | 35 | 0.0 | 1.6 | 0.00 | 0.00 | 0.00 | 64 | 1009.0 |
| 20260508192510 | 16 | 8 | 0.0 | 1.6 | 0.00 | 0.00 | 0.00 | 65 | 1009.1 |
| 20260508192007 | 16 | 129 | 1.6 | 3.2 | 0.00 | 0.00 | 0.00 | 68 | 1009.1 |
| 20260508191504 | 16 | 114 | 1.6 | 1.6 | 0.00 | 0.00 | 0.00 | 69 | 1009.1 |
| 20260508191000 | 16 | 30 | 0.0 | 0.0 | 0.00 | 0.00 | 0.00 | 69 | 1009.4 |
| 20260508190458 | 16 | 336 | 3.2 | 3.2 | 0.00 | 0.00 | 0.00 | 69 | 1009.4 |
| 20260508185954 | 16 | 87 | 1.6 | 1.6 | 0.00 | 0.00 | 0.00 | 71 | 1009.4 |
| 20260508185451 | 16 | 162 | 3.2 | 3.2 | 0.00 | 0.00 | 0.00 | 70 | 1009.6 |
| 20260508184949 | 16 | 216 | 1.6 | 3.2 | 0.00 | 0.00 | 0.00 | 70 | 1009.5 |
| 20260508184446 | 16 | 146 | 0.0 | 3.2 | 0.00 | 0.00 | 0.00 | 70 | 1009.7 |
| 20260508183943 | 16 | 265 | 3.2 | 3.2 | 0.00 | 0.00 | 0.00 | 70 | 1009.8 |
| 20260508183439 | 16 | 19 | 0.0 | 0.0 | 0.00 | 0.00 | 0.00 | 70 | 1009.7 |
| 20260508182934 | 17 | 23 | 1.6 | 1.6 | 0.00 | 0.00 | 0.00 | 67 | 1009.7 |
| 20260508182432 | 16 | 44 | 0.0 | 1.6 | 0.00 | 0.00 | 0.00 | 69 | 1009.6 |
| 20260508181932 | 16 | 332 | 4.8 | 4.8 | 0.00 | 0.00 | 0.00 | 70 | 1009.9 |
| 20260508181429 | 16 | 313 | 1.6 | 3.2 | 0.00 | 0.00 | 0.00 | 69 | 1009.8 |
| 20260508180927 | 16 | 357 | 0.0 | 1.6 | 0.00 | 0.00 | 0.00 | 69 | 1009.9 |
| 20260508180423 | 16 | 235 | 1.6 | 1.6 | 0.00 | 0.00 | 0.00 | 69 | 1010.0 |
| 20260508175919 | 16 | 341 | 3.2 | 3.2 | 0.00 | 0.00 | 0.00 | 69 | 1010.0 |
| 20260508175416 | 16 | 316 | 4.8 | 4.8 | 0.00 | 0.00 | 0.00 | 68 | 1010.1 |
| 20260508174914 | 16 | 91 | 1.6 | 1.6 | 0.00 | 0.00 | 0.00 | 69 | 1009.8 |
| 20260508174411 | 16 | 35 | 0.0 | 1.6 | 0.00 | 0.00 | 0.00 | 72 | 1010.1 |
| 20260508173907 | 15 | 81 | 0.0 | 1.6 | 0.00 | 0.00 | 0.00 | 71 | 1010.2 |
| 20260508173405 | 15 | 359 | 0.0 | 1.6 | 0.00 | 0.00 | 0.00 | 71 | 1010.4 |
| 20260508172900 | 16 | 218 | 1.6 | 3.2 | 0.00 | 0.00 | 0.00 | 69 | 1010.5 |
| 20260508172358 | 16 | 11 | 0.0 | 1.6 | 0.00 | 0.00 | 0.00 | 67 | 1010.4 |
| 20260508171854 | 16 | 171 | 1.6 | 1.6 | 0.00 | 0.00 | 0.00 | 64 | 1010.5 |
| 20260508171350 | 16 | 337 | 0.0 | 0.0 | 0.00 | 0.00 | 0.00 | 63 | 1010.6 |
| 20260508170847 | 16 | 19 | 0.0 | 0.0 | 0.00 | 0.00 | 0.00 | 66 | 1010.8 |
| 20260508170345 | 16 | 315 | 3.2 | 3.2 | 0.00 | 0.00 | 0.00 | 63 | 1010.7 |
| 20260508165841 | 15 | 355 | 0.0 | 1.6 | 0.00 | 0.00 | 0.00 | 63 | 1010.7 |
| 20260508165339 | 15 | 310 | 4.8 | 4.8 | 0.00 | 0.00 | 0.00 | 65 | 1010.8 |
| 20260508164835 | 15 | 357 | 0.0 | 0.0 | 0.00 | 0.00 | 0.00 | 67 | 1010.7 |
| 20260508164332 | 15 | 311 | 4.8 | 4.8 | 0.00 | 0.00 | 0.00 | 64 | 1011.0 |
| 20260508163830 | 15 | 337 | 0.0 | 1.6 | 0.00 | 0.00 | 0.00 | 67 | 1011.0 |
| 20260508163328 | 15 | 344 | 3.2 | 3.2 | 0.00 | 0.00 | 0.00 | 65 | 1011.1 |
| 20260508162823 | 15 | 153 | 0.0 | 1.6 | 0.00 | 0.00 | 0.00 | 66 | 1011.0 |
| 20260508162320 | 15 | 103 | 3.2 | 3.2 | 0.00 | 0.00 | 0.00 | 67 | 1011.0 |
| 20260508161817 | 14 | 41 | 0.0 | 0.0 | 0.00 | 0.00 | 0.00 | 71 | 1011.3 |
| 20260508161314 | 14 | 330 | 0.0 | 0.0 | 0.00 | 0.00 | 0.00 | 71 | 1011.5 |
| 20260508160812 | 15 | 10 | 0.0 | 0.0 | 0.00 | 0.00 | 0.00 | 67 | 1011.6 |
| 20260508160310 | 14 | 89 | 0.0 | 0.0 | 0.00 | 0.00 | 0.00 | 72 | 1011.6 |
| 20260508155806 | 14 | 348 | 3.2 | 3.2 | 0.00 | 0.00 | 0.00 | 73 | 1011.6 |
| 20260508155306 | 14 | 335 | 3.2 | 3.2 | 0.00 | 0.00 | 0.00 | 73 | 1011.5 |
| 20260508154800 | 14 | 9 | 1.6 | 1.6 | 0.00 | 0.00 | 0.00 | 76 | 1011.7 |
| 20260508154258 | 13 | 122 | 1.6 | 1.6 | 0.00 | 0.00 | 0.00 | 73 | 1011.7 |
| 20260508153754 | 13 | 27 | 0.0 | 1.6 | 0.00 | 0.00 | 0.00 | 76 | 1011.5 |
| 20260508153252 | 13 | 344 | 1.6 | 1.6 | 0.00 | 0.00 | 0.00 | 77 | 1011.8 |
| 20260508152748 | 13 | 356 | 0.0 | 1.6 | 0.00 | 0.00 | 0.00 | 77 | 1011.5 |
| 20260508152244 | 13 | 358 | 3.2 | 4.8 | 0.00 | 0.00 | 0.00 | 81 | 1011.5 |
| 20260508151740 | 12 | 354 | 3.2 | 3.2 | 0.00 | 0.00 | 0.00 | 81 | 1011.4 |
| 20260508151237 | 12 | 317 | 4.8 | 8.0 | 0.00 | 0.00 | 0.00 | 81 | 1011.5 |
| 20260508150734 | 12 | 318 | 4.8 | 4.8 | 0.00 | 0.00 | 0.00 | 83 | 1011.6 |
| 20260508150231 | 12 | 327 | 1.6 | 1.6 | 0.00 | 0.00 | 0.00 | 84 | 1011.4 |
| 20260508145726 | 12 | 17 | 3.2 | 4.8 | 0.00 | 0.00 | 0.00 | 85 | 1011.7 |
| 20260508145223 | 12 | 48 | 1.6 | 1.6 | 0.00 | 0.00 | 0.00 | 84 | 1011.7 |
| 20260508144720 | 12 | 347 | 1.6 | 3.2 | 0.00 | 0.00 | 0.00 | 86 | 1011.7 |
| 20260508144218 | 11 | 352 | 0.0 | 1.6 | 0.00 | 0.00 | 0.00 | 87 | 1011.4 |
| 20260508143715 | 11 | 31 | 0.0 | 1.6 | 0.00 | 0.00 | 0.00 | 87 | 1011.4 |
| 20260508143212 | 11 | 78 | 1.6 | 1.6 | 0.00 | 0.00 | 0.00 | 88 | 1011.5 |
| 20260508142708 | 11 | 38 | 0.0 | 0.0 | 0.00 | 0.00 | 0.00 | 88 | 1011.7 |
| 20260508142205 | 11 | 19 | 0.0 | 0.0 | 0.00 | 0.00 | 0.00 | 89 | 1011.4 |
| 20260508141702 | 11 | 200 | 3.2 | 3.2 | 0.00 | 0.00 | 0.00 | 89 | 1011.6 |
| 20260508141159 | 10 | 16 | 0.0 | 0.0 | 0.00 | 0.00 | 0.00 | 90 | 1012.1 |
| 20260508140657 | 10 | 332 | 3.2 | 3.2 | 0.00 | 0.00 | 0.00 | 89 | 1011.9 |
| 20260508140153 | 11 | 47 | 0.0 | 0.0 | 0.00 | 0.00 | 0.00 | 90 | 1011.8 |
| 20260508135649 | 10 | 28 | 0.0 | 0.0 | 0.00 | 0.00 | 0.00 | 90 | 1012.1 |
| 20260508135145 | 10 | 351 | 0.0 | 0.0 | 0.00 | 0.00 | 0.00 | 91 | 1012.0 |
| 20260508134641 | 10 | 41 | 0.0 | 1.6 | 0.00 | 0.00 | 0.00 | 91 | 1012.1 |
| 20260508134139 | 10 | 152 | 3.2 | 3.2 | 0.00 | 0.00 | 0.00 | 91 | 1012.0 |
| 20260508133636 | 10 | 28 | 0.0 | 0.0 | 0.00 | 0.00 | 0.00 | 93 | 1012.4 |
| 20260508133133 | 10 | 10 | 0.0 | 0.0 | 0.00 | 0.00 | 0.00 | 93 | 1012.1 |
| 20260508132630 | 10 | 95 | 0.0 | 0.0 | 0.00 | 0.00 | 0.00 | 93 | 1012.4 |
| 20260508132127 | 10 | 86 | 0.0 | 0.0 | 0.00 | 0.00 | 0.00 | 93 | 1012.1 |
| 20260508131623 | 10 | 34 | 0.0 | 0.0 | 0.00 | 0.00 | 0.00 | 94 | 1012.0 |
| 20260508131120 | 10 | 20 | 0.0 | 0.0 | 0.00 | 0.00 | 0.00 | 94 | 1012.1 |
| 20260508130616 | 9 | 2 | 0.0 | 0.0 | 0.00 | 0.00 | 0.00 | 94 | 1012.1 |
| 20260508130113 | 9 | 2 | 0.0 | 0.0 | 0.00 | 0.00 | 0.00 | 94 | 1011.9 |
| 20260508125608 | 9 | 320 | 0.0 | 0.0 | 0.00 | 0.00 | 0.00 | 95 | 1011.8 |
| 20260508125106 | 8 | 1 | 0.0 | 0.0 | 0.00 | 0.00 | 0.00 | 95 | 1012.0 |
| 20260508124604 | 8 | 4 | 0.0 | 0.0 | 0.00 | 0.00 | 0.00 | 96 | 1012.0 |
| 20260508124101 | 8 | 22 | 0.0 | 0.0 | 0.00 | 0.00 | 0.00 | 97 | 1012.1 |
| 20260508123559 | 8 | 54 | 0.0 | 0.0 | 0.00 | 0.00 | 0.00 | 97 | 1012.0 |
| 20260508123056 | 8 | 55 | 0.0 | 0.0 | 0.00 | 0.00 | 0.00 | 97 | 1011.8 |
| 20260508122552 | 8 | 52 | 0.0 | 0.0 | 0.00 | 0.00 | 0.00 | 97 | 1011.9 |
| 20260508122049 | 8 | 52 | 0.0 | 0.0 | 0.00 | 0.00 | 0.00 | 98 | 1012.0 |
| 20260508121548 | 8 | 52 | 0.0 | 0.0 | 0.00 | 0.00 | 0.00 | 98 | 1012.1 |
| 20260508121045 | 8 | 51 | 0.0 | 0.0 | 0.00 | 0.00 | 0.00 | 98 | 1011.8 |
| 20260508120542 | 8 | 39 | 0.0 | 0.0 | 0.00 | 0.00 | 0.00 | 98 | 1011.8 |
| 20260508120041 | 8 | 33 | 0.0 | 0.0 | 0.00 | 0.00 | 0.00 | 99 | 1011.9 |
| 20260508115538 | 7 | 22 | 0.0 | 0.0 | 0.00 | 0.00 | 0.00 | 98 | 1011.6 |
| 20260508115034 | 7 | 22 | 0.0 | 0.0 | 0.00 | 0.00 | 0.00 | 98 | 1011.7 |
| 20260508114531 | 7 | 23 | 0.0 | 0.0 | 0.00 | 0.00 | 0.00 | 99 | 1011.7 |
| 20260508114028 | 7 | 17 | 0.0 | 0.0 | 0.00 | 0.00 | 0.00 | 99 | 1011.6 |
| 20260508113525 | 7 | 27 | 0.0 | 0.0 | 0.00 | 0.00 | 0.00 | 99 | 1011.6 |
| 20260508113023 | 7 | 28 | 0.0 | 0.0 | 0.00 | 0.00 | 0.00 | 99 | 1011.4 |
| 20260508112519 | 7 | 11 | 0.0 | 0.0 | 0.00 | 0.00 | 0.00 | 98 | 1011.5 |
| 20260508112016 | 7 | 50 | 0.0 | 0.0 | 0.00 | 0.00 | 0.00 | 98 | 1011.5 |
| 20260508111513 | 7 | 16 | 0.0 | 0.0 | 0.00 | 0.00 | 0.00 | 98 | 1011.6 |
| 20260508111010 | 7 | 13 | 0.0 | 0.0 | 0.00 | 0.00 | 0.00 | 98 | 1011.7 |
| 20260508110508 | 7 | 20 | 0.0 | 0.0 | 0.00 | 0.00 | 0.00 | 98 | 1011.7 |
| 20260508110003 | 7 | 21 | 0.0 | 0.0 | 0.00 | 0.00 | 0.00 | 99 | 1011.5 |
| 20260508105458 | 7 | 38 | 0.0 | 0.0 | 0.00 | 0.00 | 0.00 | 99 | 1011.4 |
| 20260508104956 | 7 | 44 | 0.0 | 0.0 | 0.00 | 0.00 | 0.00 | 99 | 1011.0 |
| 20260508104453 | 7 | 43 | 0.0 | 0.0 | 0.00 | 0.00 | 0.00 | 99 | 1011.3 |
| 20260508103950 | 6 | 50 | 0.0 | 0.0 | 0.00 | 0.00 | 0.00 | 98 | 1011.5 |
| 20260508103447 | 6 | 39 | 0.0 | 0.0 | 0.00 | 0.00 | 0.00 | 98 | 1011.4 |
| 20260508102943 | 6 | 19 | 0.0 | 0.0 | 0.00 | 0.00 | 0.00 | 98 | 1011.5 |
| 20260508102442 | 7 | 15 | 0.0 | 0.0 | 0.00 | 0.00 | 0.00 | 98 | 1011.5 |
| 20260508101939 | 7 | 11 | 0.0 | 0.0 | 0.00 | 0.00 | 0.00 | 98 | 1011.3 |
| 20260508101436 | 7 | 2 | 0.0 | 0.0 | 0.00 | 0.00 | 0.00 | 98 | 1011.3 |
| 20260508100933 | 6 | 17 | 0.0 | 0.0 | 0.00 | 0.00 | 0.00 | 98 | 1011.5 |
| 20260508100432 | 6 | 6 | 0.0 | 0.0 | 0.00 | 0.00 | 0.00 | 98 | 1011.5 |
| 20260508095928 | 6 | 8 | 0.0 | 0.0 | 0.00 | 0.00 | 0.00 | 98 | 1011.4 |
| 20260508095426 | 6 | 20 | 0.0 | 0.0 | 0.00 | 0.00 | 0.00 | 98 | 1011.4 |
| 20260508094922 | 7 | 21 | 0.0 | 0.0 | 0.00 | 0.00 | 0.00 | 98 | 1011.1 |
| 20260508094419 | 7 | 35 | 0.0 | 0.0 | 0.00 | 0.00 | 0.00 | 98 | 1011.5 |
| 20260508093916 | 7 | 154 | 0.0 | 1.6 | 0.00 | 0.00 | 0.00 | 98 | 1011.4 |
| 20260508093414 | 7 | 40 | 0.0 | 0.0 | 0.00 | 0.00 | 0.00 | 98 | 1011.6 |
| 20260508092911 | 7 | 22 | 0.0 | 0.0 | 0.00 | 0.00 | 0.00 | 98 | 1011.6 |
| 20260508092409 | 7 | 41 | 0.0 | 0.0 | 0.00 | 0.00 | 0.00 | 98 | 1011.5 |
| 20260508091907 | 7 | 1 | 0.0 | 0.0 | 0.00 | 0.00 | 0.00 | 98 | 1011.4 |
| 20260508091403 | 6 | 26 | 0.0 | 0.0 | 0.00 | 0.00 | 0.00 | 98 | 1011.5 |
| 20260508090901 | 6 | 21 | 0.0 | 0.0 | 0.00 | 0.00 | 0.00 | 98 | 1011.5 |
| 20260508090359 | 6 | 29 | 0.0 | 0.0 | 0.00 | 0.00 | 0.00 | 98 | 1011.5 |
| 20260508085855 | 6 | 11 | 0.0 | 0.0 | 0.00 | 0.00 | 0.00 | 98 | 1011.4 |
| 20260508085351 | 6 | 354 | 0.0 | 0.0 | 0.00 | 0.00 | 0.00 | 98 | 1011.4 |
| 20260508084848 | 6 | 12 | 0.0 | 0.0 | 0.00 | 0.00 | 0.00 | 98 | 1011.5 |
| 20260508084345 | 6 | 356 | 0.0 | 0.0 | 0.00 | 0.00 | 0.00 | 98 | 1011.4 |
| 20260508083843 | 6 | 14 | 0.0 | 0.0 | 0.00 | 0.00 | 0.00 | 98 | 1011.5 |
| 20260508083340 | 6 | 53 | 0.0 | 0.0 | 0.00 | 0.00 | 0.00 | 99 | 1011.5 |
| 20260508082839 | 6 | 6 | 0.0 | 0.0 | 0.00 | 0.00 | 0.00 | 99 | 1011.5 |
| 20260508082337 | 6 | 35 | 0.0 | 0.0 | 0.00 | 0.00 | 0.00 | 99 | 1011.5 |
| 20260508081835 | 6 | 24 | 0.0 | 0.0 | 0.00 | 0.00 | 0.00 | 99 | 1011.4 |
| 20260508081331 | 6 | 32 | 0.0 | 0.0 | 0.00 | 0.00 | 0.00 | 99 | 1011.6 |
| 20260508080828 | 6 | 30 | 0.0 | 0.0 | 0.00 | 0.00 | 0.00 | 99 | 1011.5 |
| 20260508080326 | 6 | 30 | 0.0 | 0.0 | 0.00 | 0.00 | 0.00 | 99 | 1011.7 |
| 20260508075823 | 6 | 31 | 0.0 | 0.0 | 0.00 | 0.00 | 0.00 | 99 | 1011.5 |
| 20260508075319 | 6 | 46 | 0.0 | 0.0 | 0.00 | 0.00 | 0.00 | 99 | 1011.5 |
| 20260508074817 | 6 | 11 | 0.0 | 0.0 | 0.00 | 0.00 | 0.00 | 99 | 1011.6 |
| 20260508074314 | 6 | 354 | 0.0 | 0.0 | 0.00 | 0.00 | 0.00 | 99 | 1011.5 |
| 20260508073811 | 6 | 24 | 0.0 | 0.0 | 0.00 | 0.00 | 0.00 | 99 | 1011.4 |
| 20260508073309 | 6 | 25 | 0.0 | 0.0 | 0.00 | 0.00 | 0.00 | 99 | 1011.6 |
| 20260508072805 | 6 | 26 | 0.0 | 0.0 | 0.00 | 0.00 | 0.00 | 99 | 1011.6 |
| 20260508072306 | 6 | 39 | 0.0 | 0.0 | 0.00 | 0.00 | 0.00 | 99 | 1011.5 |
| 20260508071759 | 6 | 36 | 0.0 | 0.0 | 0.00 | 0.00 | 0.00 | 99 | 1011.6 |
| 20260508071258 | 6 | 58 | 0.0 | 0.0 | 0.00 | 0.00 | 0.00 | 99 | 1011.6 |
| 20260508070755 | 6 | 41 | 0.0 | 0.0 | 0.00 | 0.00 | 0.00 | 99 | 1011.6 |
| 20260508070254 | 6 | 79 | 0.0 | 0.0 | 0.00 | 0.00 | 0.00 | 99 | 1011.6 |
| 20260508065750 | 6 | 7 | 0.0 | 0.0 | 0.00 | 0.00 | 0.00 | 99 | 1011.6 |
| 20260508065248 | 6 | 4 | 0.0 | 0.0 | 0.00 | 0.00 | 0.00 | 99 | 1011.7 |